Time,TemperatureF,DewpointF,PressureIn,WindDirection,WindDirectionDegrees,WindSpeedMPH,WindSpeedGustMPH,Humidity,HourlyPrecipIn,Conditions,Clouds,dailyrainin,SoftwareType,DateUTC
2013-02-23 00:01:00,41.0,38.0,30.19,West,279,7.0,12.0,90,0.00,,,0.71,,2013-02-23 08:01:00,
2013-02-23 00:11:00,41.0,38.0,30.19,West,279,7.0,12.0,90,0.00,,,0.71,,2013-02-23 08:11:00,
2013-02-23 00:21:00,44.0,41.0,30.20,WSW,251,7.0,16.0,88,0.01,,,0.72,,2013-02-23 08:21:00,
2013-02-23 00:31:00,44.0,39.0,30.20,WNW,303,11.0,16.0,84,0.01,,,0.72,,2013-02-23 08:31:00,
2013-02-23 00:41:00,44.0,39.0,30.20,WNW,303,11.0,16.0,84,0.01,,,0.72,,2013-02-23 08:41:00,
2013-02-23 00:52:00,44.0,39.0,30.21,West,271,12.0,16.0,81,0.01,,,0.72,,2013-02-23 08:52:00,
2013-02-23 01:01:00,44.0,38.0,30.21,WNW,286,7.0,13.0,80,0.01,,,0.72,,2013-02-23 09:01:00,
2013-02-23 01:11:00,44.0,38.0,30.21,WNW,286,7.0,13.0,80,0.01,,,0.72,,2013-02-23 09:11:00,
2013-02-23 01:21:00,44.0,39.0,30.21,WNW,287,6.0,10.0,81,0.00,,,0.72,,2013-02-23 09:21:00,
2013-02-23 01:31:00,44.0,38.0,30.21,West,261,6.0,10.0,80,0.00,,,0.72,,2013-02-23 09:31:00,
2013-02-23 01:41:00,44.0,38.0,30.21,West,261,6.0,10.0,80,0.00,,,0.72,,2013-02-23 09:41:00,
2013-02-23 01:51:00,44.0,38.0,30.21,West,268,7.0,12.0,80,0.00,,,0.72,,2013-02-23 09:51:00,
2013-02-23 02:01:00,44.0,39.0,30.22,WNW,292,5.0,11.0,82,0.00,,,0.72,,2013-02-23 10:01:00,
2013-02-23 02:11:00,44.0,39.0,30.22,WNW,292,5.0,11.0,82,0.00,,,0.72,,2013-02-23 10:11:00,
2013-02-23 02:21:00,44.0,39.0,30.22,West,263,6.0,9.0,84,0.00,,,0.72,,2013-02-23 10:21:00,
2013-02-23 02:31:00,44.0,40.0,30.22,West,265,8.0,13.0,85,0.00,,,0.72,,2013-02-23 10:31:00,
2013-02-23 02:41:00,44.0,40.0,30.22,West,265,8.0,13.0,85,0.00,,,0.72,,2013-02-23 10:41:00,
2013-02-23 02:51:00,44.0,39.0,30.23,West,280,9.0,12.0,84,0.00,,,0.72,,2013-02-23 10:51:00,
2013-02-23 03:02:00,44.0,39.0,30.23,WNW,292,7.0,12.0,82,0.00,,,0.72,,2013-02-23 11:02:00,
2013-02-23 03:11:00,44.0,39.0,30.23,WNW,292,7.0,12.0,82,0.00,,,0.72,,2013-02-23 11:11:00,
2013-02-23 03:21:00,44.0,38.0,30.24,West,274,7.0,13.0,80,0.00,,,0.72,,2013-02-23 11:21:00,
2013-02-23 03:32:00,45.0,39.0,30.24,West,262,9.0,14.0,80,0.00,,,0.72,,2013-02-23 11:32:00,
2013-02-23 03:41:00,45.0,39.0,30.24,West,262,9.0,14.0,80,0.00,,,0.72,,2013-02-23 11:41:00,
2013-02-23 03:52:00,42.0,37.0,30.24,SW,229,5.0,19.0,82,0.01,,,0.73,,2013-02-23 11:52:00,
2013-02-23 04:01:00,41.0,37.0,30.25,East,98,1.0,5.0,84,0.01,,,0.73,,2013-02-23 12:01:00,
2013-02-23 04:11:00,41.0,37.0,30.25,East,98,1.0,5.0,84,0.01,,,0.73,,2013-02-23 12:11:00,
2013-02-23 04:21:00,41.0,37.0,30.25,NE,42,2.0,3.0,85,0.01,,,0.73,,2013-02-23 12:21:00,
2013-02-23 04:32:00,41.0,37.0,30.25,ESE,120,0.0,3.0,86,0.01,,,0.73,,2013-02-23 12:32:00,
2013-02-23 04:42:00,41.0,37.0,30.25,ESE,120,0.0,3.0,86,0.01,,,0.73,,2013-02-23 12:42:00,
2013-02-23 04:52:00,43.0,40.0,30.26,West,276,7.0,12.0,88,0.00,,,0.73,,2013-02-23 12:52:00,
2013-02-23 05:01:00,43.0,39.0,30.26,WSW,248,8.0,19.0,85,0.00,,,0.73,,2013-02-23 13:01:00,
2013-02-23 05:11:00,43.0,39.0,30.26,WSW,248,8.0,19.0,85,0.00,,,0.73,,2013-02-23 13:11:00,
2013-02-23 05:22:00,44.0,39.0,30.27,West,273,6.0,11.0,81,0.00,,,0.73,,2013-02-23 13:22:00,
2013-02-23 05:31:00,42.0,37.0,30.28,East,93,1.0,11.0,83,0.02,,,0.75,,2013-02-23 13:31:00,
2013-02-23 05:42:00,42.0,37.0,30.28,East,93,1.0,11.0,83,0.02,,,0.75,,2013-02-23 13:42:00,
2013-02-23 05:51:00,41.0,37.0,30.28,ENE,74,1.0,5.0,86,0.03,,,0.76,,2013-02-23 13:51:00,
2013-02-23 06:02:00,40.0,37.0,30.28,West,278,1.0,5.0,89,0.04,,,0.77,,2013-02-23 14:02:00,
2013-02-23 06:11:00,40.0,37.0,30.28,West,278,1.0,5.0,89,0.04,,,0.77,,2013-02-23 14:11:00,
2013-02-23 06:21:00,41.0,38.0,30.29,West,259,8.0,13.0,90,0.05,,,0.78,,2013-02-23 14:21:00,
2013-02-23 06:32:00,41.0,38.0,30.29,West,259,8.0,13.0,90,0.05,,,0.78,,2013-02-23 14:32:00,
2013-02-23 06:41:00,41.0,38.0,30.29,West,259,8.0,13.0,90,0.05,,,0.78,,2013-02-23 14:41:00,
2013-02-23 06:52:00,43.0,40.0,30.29,West,270,5.0,10.0,88,0.02,,,0.78,,2013-02-23 14:52:00,
2013-02-23 07:01:00,44.0,40.0,30.29,West,269,10.0,16.0,87,0.01,,,0.78,,2013-02-23 15:01:00,
2013-02-23 07:11:00,44.0,40.0,30.29,West,269,10.0,16.0,87,0.01,,,0.78,,2013-02-23 15:11:00,
2013-02-23 07:21:00,44.0,40.0,30.30,West,267,7.0,13.0,85,0.00,,,0.78,,2013-02-23 15:21:00,
2013-02-23 07:31:00,45.0,40.0,30.31,WSW,252,8.0,13.0,83,0.00,,,0.77,,2013-02-23 15:31:00,
2013-02-23 07:41:00,45.0,40.0,30.31,WSW,252,8.0,13.0,83,0.00,,,0.77,,2013-02-23 15:41:00,
2013-02-23 07:51:00,45.0,40.0,30.31,West,259,6.0,11.0,82,0.00,,,0.77,,2013-02-23 15:51:00,
2013-02-23 08:01:00,45.0,40.0,30.32,WSW,253,5.0,9.0,83,0.00,,,0.77,,2013-02-23 16:01:00,
2013-02-23 08:11:00,45.0,40.0,30.32,WSW,253,5.0,9.0,83,0.00,,,0.77,,2013-02-23 16:11:00,
2013-02-23 08:21:00,44.0,39.0,30.33,West,259,12.0,19.0,82,0.00,,,0.77,,2013-02-23 16:21:00,
2013-02-23 08:31:00,43.0,38.0,30.33,West,267,3.0,15.0,82,0.00,,,0.75,,2013-02-23 16:31:00,
2013-02-23 08:42:00,43.0,38.0,30.33,West,267,3.0,15.0,82,0.00,,,0.75,,2013-02-23 16:42:00,
2013-02-23 08:51:00,43.0,39.0,30.35,East,88,1.0,3.0,85,0.00,,,0.75,,2013-02-23 16:51:00,
2013-02-23 09:01:00,43.0,39.0,30.35,East,88,1.0,3.0,85,0.00,,,0.75,,2013-02-23 17:01:00,
2013-02-23 09:11:00,43.0,39.0,30.35,East,88,1.0,3.0,85,0.00,,,0.75,,2013-02-23 17:11:00,
2013-02-23 09:21:00,43.0,39.0,30.35,East,88,1.0,3.0,85,0.00,,,0.75,,2013-02-23 17:21:00,
2013-02-23 09:32:00,46.0,41.0,30.37,WSW,253,6.0,12.0,81,0.00,,,0.75,,2013-02-23 17:32:00,
2013-02-23 09:42:00,46.0,41.0,30.37,WSW,253,6.0,12.0,81,0.00,,,0.75,,2013-02-23 17:42:00,
2013-02-23 09:52:00,46.0,40.0,30.37,WNW,295,6.0,10.0,80,0.00,,,0.75,,2013-02-23 17:52:00,
2013-02-23 10:01:00,43.0,38.0,30.38,West,269,1.0,8.0,81,0.01,,,0.76,,2013-02-23 18:01:00,
2013-02-23 10:12:00,43.0,38.0,30.38,West,269,1.0,8.0,81,0.01,,,0.76,,2013-02-23 18:12:00,
2013-02-23 10:21:00,43.0,39.0,30.39,ENE,68,2.0,4.0,87,0.01,,,0.76,,2013-02-23 18:21:00,
2013-02-23 10:31:00,43.0,39.0,30.39,ENE,68,2.0,4.0,87,0.01,,,0.76,,2013-02-23 18:31:00,
2013-02-23 10:41:00,43.0,39.0,30.39,ENE,68,2.0,4.0,87,0.01,,,0.76,,2013-02-23 18:41:00,
2013-02-23 10:51:00,43.0,39.0,30.39,ENE,68,2.0,4.0,87,0.01,,,0.76,,2013-02-23 18:51:00,
2013-02-23 11:01:00,44.0,39.0,30.41,West,271,6.0,10.0,82,0.00,,,0.76,,2013-02-23 19:01:00,
2013-02-23 11:11:00,44.0,39.0,30.41,West,271,6.0,10.0,82,0.00,,,0.76,,2013-02-23 19:11:00,
2013-02-23 11:21:00,46.0,41.0,30.41,SW,215,0.0,6.0,83,0.00,,,0.76,,2013-02-23 19:21:00,
2013-02-23 11:32:00,46.0,41.0,30.41,SW,215,0.0,6.0,83,0.00,,,0.76,,2013-02-23 19:32:00,
2013-02-23 11:41:00,46.0,41.0,30.41,SW,215,0.0,6.0,83,0.00,,,0.76,,2013-02-23 19:41:00,
2013-02-23 11:51:00,47.0,41.0,30.42,WNW,282,8.0,13.0,80,0.00,,,0.74,,2013-02-23 19:51:00,
2013-02-23 12:01:00,45.0,39.0,30.43,West,263,6.0,13.0,80,0.00,,,0.74,,2013-02-23 20:01:00,
2013-02-23 12:11:00,45.0,39.0,30.43,West,263,6.0,13.0,80,0.00,,,0.74,,2013-02-23 20:11:00,
2013-02-23 12:21:00,47.0,41.0,30.43,West,263,5.0,8.0,79,0.00,,,0.74,,2013-02-23 20:21:00,
2013-02-23 12:31:00,47.0,41.0,30.43,West,263,5.0,8.0,79,0.00,,,0.74,,2013-02-23 20:31:00,
2013-02-23 12:41:00,47.0,41.0,30.43,West,263,5.0,8.0,79,0.00,,,0.74,,2013-02-23 20:41:00,
2013-02-23 12:52:00,46.0,41.0,30.43,WSW,254,2.0,6.0,84,0.00,,,0.57,,2013-02-23 20:52:00,
2013-02-23 13:01:00,47.0,42.0,30.43,SE,130,3.0,7.0,82,0.00,,,0.57,,2013-02-23 21:01:00,
2013-02-23 13:11:00,47.0,42.0,30.43,SE,130,3.0,7.0,82,0.00,,,0.57,,2013-02-23 21:11:00,
2013-02-23 13:22:00,48.0,41.0,30.42,West,267,8.0,13.0,77,0.00,,,0.57,,2013-02-23 21:22:00,
2013-02-23 13:31:00,48.0,41.0,30.42,West,263,8.0,12.0,76,0.00,,,0.43,,2013-02-23 21:31:00,
2013-02-23 13:41:00,48.0,41.0,30.42,West,263,8.0,12.0,76,0.00,,,0.43,,2013-02-23 21:41:00,
2013-02-23 13:51:00,48.0,41.0,30.42,West,271,9.0,15.0,78,0.00,,,0.43,,2013-02-23 21:51:00,
2013-02-23 14:01:00,48.0,40.0,30.42,WSW,250,8.0,13.0,75,0.00,,,0.43,,2013-02-23 22:01:00,
2013-02-23 14:11:00,48.0,40.0,30.42,WSW,250,8.0,13.0,75,0.00,,,0.43,,2013-02-23 22:11:00,
2013-02-23 14:21:00,48.0,40.0,30.42,WSW,250,8.0,13.0,75,0.00,,,0.43,,2013-02-23 22:21:00,
2013-02-23 14:31:00,48.0,40.0,30.42,WSW,239,7.0,12.0,73,0.00,,,0.28,,2013-02-23 22:31:00,
2013-02-23 14:42:00,48.0,40.0,30.42,WSW,239,7.0,12.0,73,0.00,,,0.28,,2013-02-23 22:42:00,
2013-02-23 14:52:00,48.0,40.0,30.42,WSW,239,7.0,12.0,73,0.00,,,0.28,,2013-02-23 22:52:00,
2013-02-23 15:01:00,48.0,40.0,30.42,WSW,239,7.0,12.0,73,0.00,,,0.28,,2013-02-23 23:01:00,
2013-02-23 15:32:00,45.0,40.0,30.44,South,178,0.0,3.0,83,0.02,,,0.20,,2013-02-23 23:32:00,
2013-02-23 15:42:00,45.0,40.0,30.44,South,178,0.0,3.0,83,0.02,,,0.20,,2013-02-23 23:42:00,
2013-02-23 15:52:00,45.0,40.0,30.44,South,178,0.0,3.0,83,0.02,,,0.20,,2013-02-23 23:52:00,
2013-02-23 16:01:00,46.0,41.0,30.45,SE,134,0.0,3.0,84,0.02,,,0.20,,2013-02-24 00:01:00,
2013-02-23 16:11:00,46.0,41.0,30.45,SE,134,0.0,3.0,84,0.02,,,0.20,,2013-02-24 00:11:00,
2013-02-23 16:22:00,47.0,42.0,30.45,West,266,3.0,6.0,83,0.00,,,0.20,,2013-02-24 00:22:00,
2013-02-23 16:31:00,47.0,42.0,30.45,WNW,288,4.0,7.0,82,0.00,,,0.11,,2013-02-24 00:31:00,
2013-02-23 16:42:00,47.0,42.0,30.45,WNW,288,4.0,7.0,82,0.00,,,0.11,,2013-02-24 00:42:00,
2013-02-23 16:52:00,47.0,41.0,30.45,West,265,3.0,7.0,80,0.00,,,0.11,,2013-02-24 00:52:00,
2013-02-23 17:01:00,47.0,41.0,30.45,West,259,2.0,7.0,79,0.00,,,0.11,,2013-02-24 01:01:00,
2013-02-23 17:11:00,47.0,41.0,30.45,West,259,2.0,7.0,79,0.00,,,0.11,,2013-02-24 01:11:00,
2013-02-23 17:22:00,46.0,40.0,30.45,West,259,0.0,8.0,79,0.00,,,0.11,,2013-02-24 01:22:00,
2013-02-23 17:31:00,46.0,40.0,30.45,West,265,3.0,6.0,80,0.00,,,0.11,,2013-02-24 01:31:00,
2013-02-23 17:41:00,46.0,40.0,30.45,West,265,3.0,6.0,80,0.00,,,0.11,,2013-02-24 01:41:00,
2013-02-23 17:51:00,46.0,40.0,30.45,West,265,3.0,6.0,80,0.00,,,0.11,,2013-02-24 01:51:00,
2013-02-23 18:01:00,46.0,40.0,30.45,West,265,3.0,6.0,80,0.00,,,0.11,,2013-02-24 02:01:00,
2013-02-23 18:21:00,45.0,40.0,30.45,ESE,102,0.0,2.0,84,0.00,,,0.11,,2013-02-24 02:21:00,
2013-02-23 18:32:00,44.0,40.0,30.46,South,177,0.0,3.0,86,0.00,,,0.11,,2013-02-24 02:32:00,
2013-02-23 18:41:00,44.0,40.0,30.46,South,177,0.0,3.0,86,0.00,,,0.11,,2013-02-24 02:41:00,
2013-02-23 18:52:00,43.0,39.0,30.47,South,177,0.0,0.0,87,0.00,,,0.11,,2013-02-24 02:52:00,
2013-02-23 19:01:00,43.0,40.0,30.47,East,98,0.0,2.0,88,0.00,,,0.11,,2013-02-24 03:01:00,
2013-02-23 19:11:00,43.0,40.0,30.47,East,98,0.0,2.0,88,0.00,,,0.11,,2013-02-24 03:11:00,
2013-02-23 19:21:00,43.0,40.0,30.47,East,90,0.0,2.0,89,0.00,,,0.11,,2013-02-24 03:21:00,
2013-02-23 19:31:00,43.0,40.0,30.47,East,90,0.0,2.0,89,0.00,,,0.11,,2013-02-24 03:31:00,
2013-02-23 19:42:00,43.0,40.0,30.47,East,90,0.0,2.0,89,0.00,,,0.11,,2013-02-24 03:42:00,
2013-02-23 19:52:00,42.0,39.0,30.47,ENE,66,4.0,8.0,89,0.00,,,0.11,,2013-02-24 03:52:00,
2013-02-23 20:01:00,42.0,39.0,30.47,ENE,76,4.0,9.0,90,0.00,,,0.11,,2013-02-24 04:01:00,
2013-02-23 20:11:00,42.0,39.0,30.47,ENE,76,4.0,9.0,90,0.00,,,0.11,,2013-02-24 04:11:00,
2013-02-23 20:21:00,42.0,39.0,30.47,ENE,61,3.0,8.0,90,0.00,,,0.11,,2013-02-24 04:21:00,
2013-02-23 20:31:00,41.0,38.0,30.47,ENE,74,4.0,9.0,90,0.00,,,0.11,,2013-02-24 04:31:00,
2013-02-23 20:41:00,41.0,38.0,30.47,ENE,74,4.0,9.0,90,0.00,,,0.11,,2013-02-24 04:41:00,
2013-02-23 20:51:00,41.0,39.0,30.48,NE,51,3.0,8.0,91,0.00,,,0.11,,2013-02-24 04:51:00,
2013-02-23 21:01:00,42.0,40.0,30.48,ENE,63,6.0,10.0,91,0.00,,,0.11,,2013-02-24 05:01:00,
2013-02-23 21:11:00,42.0,40.0,30.48,ENE,63,6.0,10.0,91,0.00,,,0.11,,2013-02-24 05:11:00,
2013-02-23 21:21:00,41.0,39.0,30.49,East,98,4.0,9.0,91,0.00,,,0.11,,2013-02-24 05:21:00,
2013-02-23 21:32:00,41.0,39.0,30.49,ENE,57,3.0,9.0,91,0.00,,,0.11,,2013-02-24 05:32:00,
2013-02-23 21:42:00,41.0,39.0,30.49,ENE,57,3.0,9.0,91,0.00,,,0.11,,2013-02-24 05:42:00,
2013-02-23 21:52:00,41.0,39.0,30.48,ESE,106,5.0,8.0,92,0.00,,,0.11,,2013-02-24 05:52:00,
2013-02-23 22:01:00,41.0,39.0,30.48,ENE,65,6.0,10.0,92,0.00,,,0.11,,2013-02-24 06:01:00,
2013-02-23 22:11:00,41.0,39.0,30.48,ENE,65,6.0,10.0,92,0.00,,,0.11,,2013-02-24 06:11:00,
2013-02-23 22:21:00,40.0,38.0,30.49,ENE,69,6.0,12.0,92,0.00,,,0.11,,2013-02-24 06:21:00,
2013-02-23 22:31:00,40.0,38.0,30.49,NE,42,4.0,10.0,92,0.00,,,0.11,,2013-02-24 06:31:00,
2013-02-23 22:41:00,40.0,38.0,30.49,NE,42,4.0,10.0,92,0.00,,,0.11,,2013-02-24 06:41:00,
2013-02-23 22:52:00,40.0,38.0,30.49,ENE,68,4.0,9.0,93,0.00,,,0.11,,2013-02-24 06:52:00,
2013-02-23 23:01:00,40.0,38.0,30.48,East,89,4.0,10.0,93,0.00,,,0.11,,2013-02-24 07:01:00,
2013-02-23 23:11:00,40.0,38.0,30.48,East,89,4.0,10.0,93,0.00,,,0.11,,2013-02-24 07:11:00,
2013-02-23 23:21:00,40.0,38.0,30.49,NNE,20,5.0,9.0,93,0.00,,,0.11,,2013-02-24 07:21:00,
2013-02-23 23:31:00,41.0,39.0,30.49,ESE,107,4.0,8.0,92,0.00,,,0.10,,2013-02-24 07:31:00,
2013-02-23 23:41:00,41.0,39.0,30.49,ESE,107,4.0,8.0,92,0.00,,,0.10,,2013-02-24 07:41:00,
2013-02-23 23:51:00,41.0,39.0,30.48,ENE,64,5.0,11.0,92,0.00,,,0.10,,2013-02-24 07:51:00,